Track FLOCK 1C 5 now! 10-day predictions FLOCK 1C 5 is classified as:
1 40038U 14033AE 22183.41533792 .00002339 00000-0 23027-3 0 9990 2 40038 98.0104 132.3759 0013528 358.7783 1.3400 14.93033447436244